,,,PA_Meas_PMT16A,,PR_Meas_QMR101_102,,RH_Meas_QMH101,,SR_Meas_QMS101,,TA_Meas_QMH101,,GenWind,,GenWind,
date,time,status,PA,status,PR,status,RH,status,SR,status,TA,status,DirAvg,status,SpdAvg,
2009-10-10, 00:00:04,VALID,1000.87,VALID,0,VALID,93.7223,VALID,0,VALID,22.8427,VALID,18,VALID,0.697656,
2009-10-10, 00:01:04,VALID,1000.87,VALID,0,VALID,93.7757,VALID,0,VALID,22.8835,VALID,18,VALID,1.02305,
2009-10-10, 00:02:04,VALID,1000.87,VALID,0,VALID,93.7757,VALID,0,VALID,22.8623,VALID,18,VALID,0.960547,
2009-10-10, 00:03:04,VALID,1000.84,VALID,0,VALID,93.7528,VALID,0,VALID,22.8427,VALID,18,VALID,1.00664,
2009-10-10, 00:04:04,VALID,1000.86,VALID,0,VALID,93.7451,VALID,0,VALID,22.8427,VALID,17,VALID,0.976953,
2009-10-10, 00:05:04,VALID,1000.84,VALID,0,VALID,93.707,VALID,0,VALID,22.8037,VALID,18,VALID,0.944531,
2009-10-10, 00:06:04,VALID,1000.85,VALID,0,VALID,93.6536,VALID,0,VALID,22.786,VALID,18,VALID,0.919141,
2009-10-10, 00:07:04,VALID,1000.87,VALID,0,VALID,93.6612,VALID,0,VALID,22.7469,VALID,18,VALID,0.927734,
2009-10-10, 00:08:04,VALID,1000.84,VALID,0,VALID,93.6841,VALID,0,VALID,22.7469,VALID,18,VALID,0.817578,
2009-10-10, 00:09:04,VALID,1000.85,VALID,0,VALID,93.6765,VALID,0,VALID,22.7062,VALID,18,VALID,0.844922,
2009-10-10, 00:10:04,VALID,1000.86,VALID,0,VALID,93.7299,VALID,0,VALID,22.7257,VALID,14,VALID,0.863672,
2009-10-10, 00:11:04,VALID,1000.9,VALID,0,VALID,93.7985,VALID,0,VALID,22.7257,VALID,9,VALID,0.725,
2009-10-10, 00:12:04,VALID,1000.9,VALID,0,VALID,93.7757,VALID,0,VALID,22.7257,VALID,8,VALID,0.663672,
2009-10-10, 00:13:04,VALID,1000.88,VALID,0,VALID,93.7909,VALID,0,VALID,22.7452,VALID,1,VALID,0.666016,
2009-10-10, 00:14:04,VALID,1000.9,VALID,0,VALID,93.7833,VALID,0,VALID,22.7664,VALID,358,VALID,0.615625,
2009-10-10, 00:15:04,VALID,1000.87,VALID,0,VALID,93.768,VALID,0,VALID,22.7664,VALID,4,VALID,0.929297,
2009-10-10, 00:16:04,VALID,1000.86,VALID,0,VALID,93.7451,VALID,0,VALID,22.7062,VALID,31,VALID,1.03477,
2009-10-10, 00:17:04,VALID,1000.88,VALID,0,VALID,93.7909,VALID,0,VALID,22.7469,VALID,31,VALID,1.06875,
2009-10-10, 00:18:04,VALID,1000.89,VALID,0,VALID,93.7985,VALID,0,VALID,22.7257,VALID,39,VALID,1.15,
2009-10-10, 00:19:04,VALID,1000.89,VALID,0,VALID,93.8214,VALID,0,VALID,22.7452,VALID,41,VALID,1.07422,
2009-10-10, 00:20:04,VALID,1000.87,VALID,0,VALID,93.8443,VALID,0,VALID,22.7647,VALID,47,VALID,1.17227,
2009-10-10, 00:21:04,VALID,1000.87,VALID,0,VALID,93.8062,VALID,0,VALID,22.7647,VALID,49,VALID,1.24961,
2009-10-10, 00:22:04,VALID,1000.87,VALID,0,VALID,93.7757,VALID,0,VALID,22.7842,VALID,50,VALID,1.31016,
2009-10-10, 00:23:04,VALID,1000.88,VALID,0,VALID,93.7757,VALID,0,VALID,22.7647,VALID,50,VALID,1.30117,
2009-10-10, 00:24:04,VALID,1000.87,VALID,0,VALID,93.768,VALID,0,VALID,22.8037,VALID,47,VALID,1.20313,
2009-10-10, 00:25:04,VALID,1000.84,VALID,0,VALID,93.7528,VALID,0,VALID,22.8232,VALID,43,VALID,1.02734,
2009-10-10, 00:26:04,VALID,1000.86,VALID,0,VALID,93.6994,VALID,0,VALID,22.825,VALID,43,VALID,0.869141,
2009-10-10, 00:27:04,VALID,1000.87,VALID,0,VALID,93.707,VALID,0,VALID,22.8037,VALID,43,VALID,0.714063,
2009-10-10, 00:28:04,VALID,1000.86,VALID,0,VALID,93.6917,VALID,0,VALID,22.8037,VALID,43,VALID,0.459375,
2009-10-10, 00:29:04,VALID,1000.82,VALID,0,VALID,93.6612,VALID,0,VALID,22.7842,VALID,43,VALID,0.568359,
2009-10-10, 00:30:04,VALID,1000.82,VALID,0,VALID,93.7146,VALID,0,VALID,22.8055,VALID,49,VALID,0.828906,
2009-10-10, 00:31:04,VALID,1000.78,VALID,0,VALID,93.7146,VALID,0,VALID,22.7842,VALID,52,VALID,1.00273,
2009-10-10, 00:32:04,VALID,1000.79,VALID,0,VALID,93.6383,VALID,0,VALID,22.786,VALID,58,VALID,0.966797,
2009-10-10, 00:33:04,VALID,1000.78,VALID,0,VALID,93.5697,VALID,0,VALID,22.7452,VALID,73,VALID,1.18945,
2009-10-10, 00:34:04,VALID,1000.75,VALID,0,VALID,93.5773,VALID,0,VALID,22.7062,VALID,79,VALID,0.80625,
2009-10-10, 00:35:04,VALID,1000.74,VALID,0,VALID,93.6536,VALID,0,VALID,22.7257,VALID,79,VALID,0.924609,
2009-10-10, 00:36:04,VALID,1000.69,VALID,0,VALID,93.6078,VALID,0,VALID,22.7257,VALID,60,VALID,0.787891,
2009-10-10, 00:37:04,VALID,1000.7,VALID,0,VALID,93.5926,VALID,0,VALID,22.6867,VALID,67,VALID,0.933594,
2009-10-10, 00:38:04,VALID,1000.7,VALID,0,VALID,93.646,VALID,0,VALID,22.6672,VALID,59,VALID,0.983984,
2009-10-10, 00:39:04,VALID,1000.68,VALID,0,VALID,93.6612,VALID,0,VALID,22.6884,VALID,62,VALID,0.707031,
2009-10-10, 00:40:04,VALID,1000.69,VALID,0,VALID,93.6612,VALID,0,VALID,22.6672,VALID,62,VALID,0.245703,
2009-10-10, 00:41:04,VALID,1000.71,VALID,0,VALID,93.6688,VALID,0,VALID,22.6477,VALID,65,VALID,0.362109,
2009-10-10, 00:42:04,VALID,1000.68,VALID,0,VALID,93.6307,VALID,0,VALID,22.6494,VALID,67,VALID,0.314844,
2009-10-10, 00:43:04,VALID,1000.67,VALID,0,VALID,93.6307,VALID,0,VALID,22.6299,VALID,63,VALID,0.842969,
2009-10-10, 00:44:04,VALID,1000.68,VALID,0,VALID,93.6154,VALID,0,VALID,22.6104,VALID,56,VALID,0.858203,
2009-10-10, 00:45:05,VALID,1000.71,VALID,0,VALID,93.6536,VALID,0,VALID,22.5696,VALID,48,VALID,0.525,
2009-10-10, 00:46:05,VALID,1000.68,VALID,0,VALID,93.6231,VALID,0,VALID,22.5714,VALID,48,VALID,0.273438,
2009-10-10, 00:47:04,VALID,1000.7,VALID,0,VALID,93.6688,VALID,0,VALID,22.5519,VALID,48,VALID,0,
2009-10-10, 00:48:05,VALID,1000.7,VALID,0,VALID,93.6688,VALID,0,VALID,22.5519,VALID,48,VALID,0,
2009-10-10, 00:49:05,VALID,1000.7,VALID,0,VALID,93.646,VALID,0,VALID,22.5128,VALID,48,VALID,0,
2009-10-10, 00:50:05,VALID,1000.69,VALID,0,VALID,93.707,VALID,0,VALID,22.5128,VALID,48,VALID,0,
2009-10-10, 00:51:05,VALID,1000.66,VALID,0,VALID,93.6994,VALID,0,VALID,22.4721,VALID,48,VALID,0,
2009-10-10, 00:52:05,VALID,1000.66,VALID,0,VALID,93.7299,VALID,0,VALID,22.4526,VALID,48,VALID,0,
2009-10-10, 00:53:05,VALID,1000.65,VALID,0,VALID,93.768,VALID,0,VALID,22.4933,VALID,48,VALID,0.144141,
2009-10-10, 00:54:05,VALID,1000.61,VALID,0,VALID,93.7985,VALID,0,VALID,22.4933,VALID,48,VALID,0.441016,
2009-10-10, 00:55:05,VALID,1000.64,VALID,0,VALID,93.768,VALID,0,VALID,22.4933,VALID,48,VALID,0.249609,
2009-10-10, 00:56:05,VALID,1000.61,VALID,0,VALID,93.7833,VALID,0,VALID,22.4933,VALID,48,VALID,0,
2009-10-10, 00:57:05,VALID,1000.63,VALID,0,VALID,93.7909,VALID,0,VALID,22.4933,VALID,48,VALID,0,
2009-10-10, 00:58:05,VALID,1000.63,VALID,0,VALID,93.7909,VALID,0,VALID,22.4543,VALID,50,VALID,0.117188,
2009-10-10, 00:59:05,VALID,1000.62,VALID,0,VALID,93.8062,VALID,0,VALID,22.4738,VALID,51,VALID,0.190625,
2009-10-10, 01:00:05,VALID,1000.62,VALID,0,VALID,93.7909,VALID,0,VALID,22.4543,VALID,52,VALID,0.407422,
2009-10-10, 01:01:05,VALID,1000.59,VALID,0,VALID,93.7757,VALID,0,VALID,22.4543,VALID,86,VALID,0.289844,
2009-10-10, 01:02:05,VALID,1000.63,VALID,0,VALID,93.7985,VALID,0,VALID,22.4331,VALID,91,VALID,0.373047,
2009-10-10, 01:03:05,VALID,1000.58,VALID,0,VALID,93.8443,VALID,0,VALID,22.4738,VALID,143,VALID,0.230469,
2009-10-10, 01:04:05,VALID,1000.53,VALID,0,VALID,93.8748,VALID,0,VALID,22.4738,VALID,143,VALID,0.323828,
2009-10-10, 01:05:05,VALID,1000.57,VALID,0,VALID,93.8367,VALID,0,VALID,22.4738,VALID,143,VALID,0.138281,
2009-10-10, 01:06:05,VALID,1000.57,VALID,0,VALID,93.8596,VALID,0,VALID,22.4933,VALID,143,VALID,0.789453,
2009-10-10, 01:07:05,VALID,1000.52,VALID,0,VALID,93.8672,VALID,0,VALID,22.4916,VALID,102,VALID,0.685156,
2009-10-10, 01:08:05,VALID,1000.58,VALID,0,VALID,93.8367,VALID,0,VALID,22.4721,VALID,82,VALID,0.298047,
2009-10-10, 01:09:05,VALID,1000.56,VALID,0,VALID,93.8214,VALID,0,VALID,22.4721,VALID,82,VALID,0.0078125,
2009-10-10, 01:10:05,VALID,1000.56,VALID,0,VALID,93.8062,VALID,0,VALID,22.4738,VALID,82,VALID,0.261328,
2009-10-10, 01:11:05,VALID,1000.52,VALID,0,VALID,93.852,VALID,0,VALID,22.5128,VALID,322,VALID,0.714844,
2009-10-10, 01:12:05,VALID,1000.53,VALID,0,VALID,93.852,VALID,0,VALID,22.5323,VALID,322,VALID,0.658203,
2009-10-10, 01:13:05,VALID,1000.52,VALID,0,VALID,93.768,VALID,0,VALID,22.5128,VALID,353,VALID,0.882031,
2009-10-10, 01:14:05,VALID,1000.52,VALID,0,VALID,93.707,VALID,0,VALID,22.4721,VALID,360,VALID,1.0375,
2009-10-10, 01:15:05,VALID,1000.51,VALID,0,VALID,93.6994,VALID,0,VALID,22.4543,VALID,360,VALID,0.640234,
2009-10-10, 01:16:05,VALID,1000.55,VALID,0,VALID,93.6917,VALID,0,VALID,22.4738,VALID,360,VALID,0.363281,
2009-10-10, 01:17:05,VALID,1000.52,VALID,0,VALID,93.707,VALID,0,VALID,22.4738,VALID,360,VALID,0.0949219,
2009-10-10, 01:18:05,VALID,1000.52,VALID,0,VALID,93.7299,VALID,0,VALID,22.4543,VALID,360,VALID,0.00664063,
2009-10-10, 01:19:05,VALID,1000.51,VALID,0,VALID,93.7223,VALID,0,VALID,22.4331,VALID,360,VALID,0,
2009-10-10, 01:20:05,VALID,1000.5,VALID,0,VALID,93.7223,VALID,0,VALID,22.4331,VALID,360,VALID,0,
2009-10-10, 01:21:05,VALID,1000.5,VALID,0,VALID,93.6917,VALID,0,VALID,22.4348,VALID,360,VALID,0,
2009-10-10, 01:22:05,VALID,1000.49,VALID,0,VALID,93.7223,VALID,0,VALID,22.4136,VALID,360,VALID,0.239063,
2009-10-10, 01:23:05,VALID,1000.49,VALID,0,VALID,93.7604,VALID,0,VALID,22.4348,VALID,360,VALID,0.377734,
2009-10-10, 01:24:05,VALID,1000.49,VALID,0,VALID,93.7299,VALID,0,VALID,22.4543,VALID,360,VALID,0.341016,
2009-10-10, 01:25:05,VALID,1000.47,VALID,0,VALID,93.768,VALID,0,VALID,22.4543,VALID,360,VALID,0.168359,
2009-10-10, 01:26:05,VALID,1000.47,VALID,0,VALID,93.7528,VALID,0,VALID,22.4543,VALID,360,VALID,0,
2009-10-10, 01:27:05,VALID,1000.44,VALID,0,VALID,93.7528,VALID,0,VALID,22.4543,VALID,360,VALID,0.003125,
2009-10-10, 01:28:05,VALID,1000.43,VALID,0,VALID,93.7223,VALID,0,VALID,22.4348,VALID,360,VALID,0.332422,
2009-10-10, 01:29:05,VALID,1000.43,VALID,0,VALID,93.6612,VALID,0,VALID,22.4153,VALID,360,VALID,0.239453,
2009-10-10, 01:30:05,VALID,1000.44,VALID,0,VALID,93.7223,VALID,0,VALID,22.4153,VALID,360,VALID,0.304297,
2009-10-10, 01:31:05,VALID,1000.44,VALID,0,VALID,93.707,VALID,0,VALID,22.4153,VALID,360,VALID,0.197266,
2009-10-10, 01:32:05,VALID,1000.47,VALID,0,VALID,93.7223,VALID,0,VALID,22.4136,VALID,360,VALID,0,
2009-10-10, 01:33:05,VALID,1000.47,VALID,0,VALID,93.7604,VALID,0,VALID,22.4348,VALID,360,VALID,0,
2009-10-10, 01:34:05,VALID,1000.45,VALID,0,VALID,93.7528,VALID,0,VALID,22.4136,VALID,360,VALID,0,
2009-10-10, 01:35:05,VALID,1000.45,VALID,0,VALID,93.7451,VALID,0,VALID,22.4331,VALID,360,VALID,0,
2009-10-10, 01:36:05,VALID,1000.48,VALID,0,VALID,93.6765,VALID,0,VALID,22.4348,VALID,360,VALID,0.166406,
2009-10-10, 01:37:05,VALID,1000.46,VALID,0,VALID,93.646,VALID,0,VALID,22.4153,VALID,360,VALID,0.569531,
2009-10-10, 01:38:05,VALID,1000.47,VALID,0,VALID,93.6154,VALID,0,VALID,22.3958,VALID,36,VALID,0.65625,
2009-10-10, 01:39:05,VALID,1000.45,VALID,0,VALID,93.6612,VALID,0,VALID,22.3941,VALID,41,VALID,0.716016,
2009-10-10, 01:40:05,VALID,1000.45,VALID,0,VALID,93.6307,VALID,0,VALID,22.3746,VALID,41,VALID,0.436719,
2009-10-10, 01:41:05,VALID,1000.45,VALID,0,VALID,93.6002,VALID,0,VALID,22.3551,VALID,41,VALID,0.137109,
2009-10-10, 01:42:05,VALID,1000.43,VALID,0,VALID,93.5773,VALID,0,VALID,22.3568,VALID,41,VALID,0.161719,
2009-10-10, 01:43:05,VALID,1000.42,VALID,0,VALID,93.6078,VALID,0,VALID,22.3373,VALID,41,VALID,0.494922,
2009-10-10, 01:44:05,VALID,1000.46,VALID,0,VALID,93.6917,VALID,0,VALID,22.3161,VALID,41,VALID,0.408203,
2009-10-10, 01:45:05,VALID,1000.43,VALID,0,VALID,93.7528,VALID,0,VALID,22.3551,VALID,41,VALID,0.576953,
2009-10-10, 01:46:05,VALID,1000.45,VALID,0,VALID,93.7604,VALID,0,VALID,22.3763,VALID,41,VALID,0.519922,
2009-10-10, 01:47:05,VALID,1000.46,VALID,0,VALID,93.7909,VALID,0,VALID,22.3941,VALID,41,VALID,0.276953,
2009-10-10, 01:48:05,VALID,1000.46,VALID,0,VALID,93.7528,VALID,0,VALID,22.3958,VALID,41,VALID,0.515625,
2009-10-10, 01:49:05,VALID,1000.45,VALID,0,VALID,93.8291,VALID,0,VALID,22.4348,VALID,41,VALID,0.623438,
2009-10-10, 01:50:05,VALID,1000.47,VALID,0,VALID,93.7833,VALID,0,VALID,22.4543,VALID,41,VALID,0.616016,
2009-10-10, 01:51:05,VALID,1000.46,VALID,0,VALID,93.7528,VALID,0,VALID,22.4136,VALID,41,VALID,0.482422,
2009-10-10, 01:52:05,VALID,1000.45,VALID,0,VALID,93.7146,VALID,0,VALID,22.4348,VALID,41,VALID,0.471875,
2009-10-10, 01:53:05,VALID,1000.47,VALID,0,VALID,93.7146,VALID,0,VALID,22.3746,VALID,38,VALID,0.552734,
2009-10-10, 01:54:05,VALID,1000.47,VALID,0,VALID,93.7299,VALID,0,VALID,22.4136,VALID,355,VALID,0.417578,
2009-10-10, 01:55:05,VALID,1000.44,VALID,0,VALID,93.7146,VALID,0,VALID,22.4348,VALID,355,VALID,0.344531,
2009-10-10, 01:56:05,VALID,1000.47,VALID,0,VALID,93.7299,VALID,0,VALID,22.3941,VALID,355,VALID,0.527734,
2009-10-10, 01:57:05,VALID,1000.45,VALID,0,VALID,93.7375,VALID,0,VALID,22.4153,VALID,356,VALID,0.577344,
2009-10-10, 01:58:05,VALID,1000.4,VALID,0,VALID,93.7223,VALID,0,VALID,22.4348,VALID,356,VALID,0.385547,
2009-10-10, 01:59:05,VALID,1000.41,VALID,0,VALID,93.6612,VALID,0,VALID,22.4153,VALID,356,VALID,0.239063,
2009-10-10, 02:00:05,VALID,1000.38,VALID,0,VALID,93.6841,VALID,0,VALID,22.4153,VALID,356,VALID,0.461719,
2009-10-10, 02:01:05,VALID,1000.36,VALID,0,VALID,93.707,VALID,0,VALID,22.4153,VALID,31,VALID,0.6375,
2009-10-10, 02:02:05,VALID,1000.35,VALID,0,VALID,93.6307,VALID,0,VALID,22.3763,VALID,48,VALID,0.391016,
2009-10-10, 02:03:05,VALID,1000.35,VALID,0,VALID,93.6154,VALID,0,VALID,22.3551,VALID,48,VALID,0.0261719,
2009-10-10, 02:04:05,VALID,1000.35,VALID,0,VALID,93.6078,VALID,0,VALID,22.3568,VALID,48,VALID,0,
2009-10-10, 02:05:05,VALID,1000.37,VALID,0,VALID,93.6536,VALID,0,VALID,22.3568,VALID,48,VALID,0,
2009-10-10, 02:06:05,VALID,1000.38,VALID,0,VALID,93.646,VALID,0,VALID,22.3373,VALID,83,VALID,0.451562,
2009-10-10, 02:07:05,VALID,1000.36,VALID,0,VALID,93.6612,VALID,0,VALID,22.3178,VALID,97,VALID,0.0410156,
2009-10-10, 02:08:05,VALID,1000.4,VALID,0,VALID,93.646,VALID,0,VALID,22.3178,VALID,97,VALID,0.337109,
2009-10-10, 02:09:05,VALID,1000.38,VALID,0,VALID,93.6765,VALID,0,VALID,22.3178,VALID,97,VALID,0.268359,
2009-10-10, 02:10:05,VALID,1000.37,VALID,0,VALID,93.6383,VALID,0,VALID,22.2983,VALID,97,VALID,0.234766,
2009-10-10, 02:11:05,VALID,1000.4,VALID,0,VALID,93.6307,VALID,0,VALID,22.2576,VALID,97,VALID,0,
2009-10-10, 02:12:05,VALID,1000.38,VALID,0,VALID,93.6231,VALID,0,VALID,22.2397,VALID,97,VALID,0,
2009-10-10, 02:13:05,VALID,1000.37,VALID,0,VALID,93.6536,VALID,0,VALID,22.2186,VALID,97,VALID,0,
2009-10-10, 02:14:05,VALID,1000.38,VALID,0,VALID,93.8062,VALID,0,VALID,22.2381,VALID,97,VALID,0.289453,
2009-10-10, 02:15:05,VALID,1000.36,VALID,0,VALID,93.8901,VALID,0,VALID,22.2771,VALID,97,VALID,0.512109,
2009-10-10, 02:16:05,VALID,1000.33,VALID,0,VALID,93.913,VALID,0,VALID,22.3356,VALID,97,VALID,0.501172,
2009-10-10, 02:17:05,VALID,1000.34,VALID,0,VALID,93.9054,VALID,0,VALID,22.3551,VALID,97,VALID,0.405469,
2009-10-10, 02:18:05,VALID,1000.32,VALID,0,VALID,93.8367,VALID,0,VALID,22.3746,VALID,97,VALID,0.563281,
2009-10-10, 02:19:05,VALID,1000.31,VALID,0,VALID,93.8367,VALID,0,VALID,22.3958,VALID,97,VALID,0.683203,
2009-10-10, 02:20:05,VALID,1000.29,VALID,0,VALID,93.7833,VALID,0,VALID,22.3746,VALID,97,VALID,0.691016,
2009-10-10, 02:21:05,VALID,1000.3,VALID,0,VALID,93.7833,VALID,0,VALID,22.3746,VALID,97,VALID,0.789453,
2009-10-10, 02:22:05,VALID,1000.29,VALID,0,VALID,93.7604,VALID,0,VALID,22.3746,VALID,97,VALID,0.675,
2009-10-10, 02:23:05,VALID,1000.27,VALID,0,VALID,93.7528,VALID,0,VALID,22.3763,VALID,97,VALID,0.523438,
2009-10-10, 02:24:05,VALID,1000.26,VALID,0,VALID,93.6994,VALID,0,VALID,22.3356,VALID,108,VALID,0.637109,
2009-10-10, 02:25:05,VALID,1000.26,VALID,0,VALID,93.6994,VALID,0,VALID,22.3356,VALID,117,VALID,0.548047,
2009-10-10, 02:26:05,VALID,1000.23,VALID,0,VALID,93.7604,VALID,0,VALID,22.3568,VALID,74,VALID,0.641016,
2009-10-10, 02:27:05,VALID,1000.23,VALID,0,VALID,93.6841,VALID,0,VALID,22.3373,VALID,74,VALID,0.462109,
2009-10-10, 02:28:05,VALID,1000.23,VALID,0,VALID,93.6536,VALID,0,VALID,22.3178,VALID,84,VALID,0.619922,
2009-10-10, 02:29:05,VALID,1000.22,VALID,0,VALID,93.6765,VALID,0,VALID,22.2966,VALID,45,VALID,1.05,
2009-10-10, 02:30:05,VALID,1000.22,VALID,0,VALID,93.6612,VALID,0,VALID,22.3161,VALID,37,VALID,0.998047,
2009-10-10, 02:31:05,VALID,1000.24,VALID,0,VALID,93.6765,VALID,0,VALID,22.3161,VALID,32,VALID,0.804297,
2009-10-10, 02:32:05,VALID,1000.23,VALID,0,VALID,93.5926,VALID,0,VALID,22.2966,VALID,32,VALID,0.369141,
2009-10-10, 02:33:05,VALID,1000.26,VALID,0,VALID,93.5239,VALID,0,VALID,22.2788,VALID,29,VALID,0.457422,
2009-10-10, 02:34:05,VALID,1000.21,VALID,0,VALID,93.4857,VALID,0,VALID,22.2381,VALID,357,VALID,1.00273,
2009-10-10, 02:35:05,VALID,1000.19,VALID,0,VALID,93.6002,VALID,0,VALID,22.2592,VALID,356,VALID,1.56758,
2009-10-10, 02:36:05,VALID,1000.19,VALID,0,VALID,93.5926,VALID,0,VALID,22.2592,VALID,356,VALID,1.06562,
2009-10-10, 02:37:05,VALID,1000.23,VALID,0,VALID,93.562,VALID,0,VALID,22.2397,VALID,344,VALID,0.196094,
2009-10-10, 02:38:05,VALID,1000.22,VALID,0,VALID,93.646,VALID,0,VALID,22.2186,VALID,343,VALID,0.479297,
2009-10-10, 02:39:05,VALID,1000.25,VALID,0,VALID,93.646,VALID,0,VALID,22.2202,VALID,343,VALID,0.469531,
2009-10-10, 02:40:05,VALID,1000.25,VALID,0,VALID,93.6688,VALID,0,VALID,22.199,VALID,343,VALID,0,
2009-10-10, 02:41:05,VALID,1000.22,VALID,0,VALID,93.7223,VALID,0,VALID,22.2186,VALID,8,VALID,0.478516,
2009-10-10, 02:42:05,VALID,1000.21,VALID,0,VALID,93.7528,VALID,0,VALID,22.2397,VALID,17,VALID,0.772656,
2009-10-10, 02:43:05,VALID,1000.21,VALID,0,VALID,93.7375,VALID,0,VALID,22.2397,VALID,25,VALID,0.647656,
2009-10-10, 02:44:05,VALID,1000.19,VALID,0,VALID,93.6994,VALID,0.112286,VALID,22.1974,VALID,25,VALID,0.353906,
2009-10-10, 02:45:05,VALID,1000.17,VALID,0,VALID,93.7146,VALID,0,VALID,22.1974,VALID,320,VALID,0.404687,
2009-10-10, 02:46:05,VALID,1000.17,VALID,0,VALID,93.768,VALID,0,VALID,22.2364,VALID,253,VALID,0.623047,
2009-10-10, 02:47:05,VALID,1000.16,VALID,0,VALID,93.7528,VALID,0.112286,VALID,22.2364,VALID,251,VALID,0.216016,
2009-10-10, 02:48:05,VALID,1000.12,VALID,0,VALID,93.768,VALID,0,VALID,22.2364,VALID,251,VALID,0.00273437,
2009-10-10, 02:49:05,VALID,1000.12,VALID,0,VALID,93.7604,VALID,0,VALID,22.2364,VALID,251,VALID,0.307422,
2009-10-10, 02:50:05,VALID,1000.14,VALID,0,VALID,93.7223,VALID,0,VALID,22.2364,VALID,251,VALID,0,
2009-10-10, 02:51:05,VALID,1000.18,VALID,0,VALID,93.6154,VALID,0.112286,VALID,22.1974,VALID,183,VALID,0,
2009-10-10, 02:52:05,VALID,1000.2,VALID,0,VALID,93.7223,VALID,0.112286,VALID,22.2186,VALID,160,VALID,0.503125,
2009-10-10, 02:53:05,VALID,1000.17,VALID,0,VALID,93.7833,VALID,0.112286,VALID,22.2169,VALID,84,VALID,0.715625,
2009-10-10, 02:54:05,VALID,1000.19,VALID,0,VALID,93.6994,VALID,0.112286,VALID,22.2169,VALID,83,VALID,0.644141,
2009-10-10, 02:55:05,VALID,1000.19,VALID,0,VALID,93.6154,VALID,0.112286,VALID,22.1584,VALID,83,VALID,0.460938,
2009-10-10, 02:56:05,VALID,1000.22,VALID,0,VALID,93.7146,VALID,0,VALID,22.1795,VALID,83,VALID,0.192188,
2009-10-10, 02:57:05,VALID,1000.23,VALID,0,VALID,93.6765,VALID,0.112286,VALID,22.1779,VALID,83,VALID,0,
2009-10-10, 02:58:05,VALID,1000.21,VALID,0,VALID,93.6231,VALID,0.112286,VALID,22.0998,VALID,83,VALID,0.130859,
2009-10-10, 02:59:05,VALID,1000.22,VALID,0,VALID,93.6231,VALID,0,VALID,22.1015,VALID,83,VALID,0,
2009-10-10, 03:00:05,VALID,1000.16,VALID,0,VALID,93.646,VALID,0,VALID,22.1032,VALID,83,VALID,0.560156,
2009-10-10, 03:01:05,VALID,1000.18,VALID,0,VALID,93.6994,VALID,0,VALID,22.1015,VALID,83,VALID,0.369531,
2009-10-10, 03:02:05,VALID,1000.16,VALID,0,VALID,93.646,VALID,0,VALID,22.082,VALID,83,VALID,0.0980469,
2009-10-10, 03:03:05,VALID,1000.18,VALID,0,VALID,93.5773,VALID,0,VALID,22.0235,VALID,83,VALID,0.121875,
2009-10-10, 03:04:05,VALID,1000.17,VALID,0,VALID,93.6154,VALID,0,VALID,21.9845,VALID,83,VALID,0.484375,
2009-10-10, 03:05:05,VALID,1000.13,VALID,0,VALID,93.9206,VALID,0,VALID,22.0235,VALID,83,VALID,0.703516,
2009-10-10, 03:06:05,VALID,1000.15,VALID,0,VALID,94.0351,VALID,0,VALID,22.121,VALID,66,VALID,0.817969,
2009-10-10, 03:07:05,VALID,1000.18,VALID,0,VALID,93.9588,VALID,0,VALID,22.16,VALID,66,VALID,0.803516,
2009-10-10, 03:08:05,VALID,1000.18,VALID,0,VALID,93.913,VALID,0,VALID,22.16,VALID,66,VALID,0.552734,
2009-10-10, 03:09:05,VALID,1000.23,VALID,0,VALID,93.8138,VALID,0,VALID,22.1422,VALID,66,VALID,0.208203,
2009-10-10, 03:10:05,VALID,1000.22,VALID,0,VALID,93.7985,VALID,0,VALID,22.082,VALID,66,VALID,0.392578,
2009-10-10, 03:11:05,VALID,1000.23,VALID,0,VALID,93.8062,VALID,0,VALID,22.0625,VALID,53,VALID,0.777344,
2009-10-10, 03:12:05,VALID,1000.25,VALID,0,VALID,93.7604,VALID,0,VALID,22.0837,VALID,53,VALID,0.797266,
2009-10-10, 03:13:05,VALID,1000.25,VALID,0,VALID,93.7375,VALID,0,VALID,22.004,VALID,53,VALID,0.848828,
2009-10-10, 03:14:05,VALID,1000.26,VALID,0,VALID,93.7985,VALID,0,VALID,22.0252,VALID,41,VALID,0.859375,
2009-10-10, 03:15:05,VALID,1000.27,VALID,0,VALID,93.8291,VALID,0,VALID,22.0252,VALID,31,VALID,0.920313,
2009-10-10, 03:16:05,VALID,1000.27,VALID,0,VALID,93.9206,VALID,0,VALID,22.0235,VALID,31,VALID,0.800781,
2009-10-10, 03:17:05,VALID,1000.28,VALID,0,VALID,93.8977,VALID,0,VALID,22.0447,VALID,31,VALID,0.6625,
2009-10-10, 03:18:05,VALID,1000.26,VALID,0,VALID,93.8443,VALID,0,VALID,22.0252,VALID,31,VALID,0.747656,
2009-10-10, 03:19:05,VALID,1000.24,VALID,0,VALID,93.852,VALID,0,VALID,22.0057,VALID,31,VALID,0.917578,
2009-10-10, 03:20:05,VALID,1000.25,VALID,0,VALID,93.8291,VALID,0,VALID,21.9667,VALID,31,VALID,0.892969,
2009-10-10, 03:21:05,VALID,1000.26,VALID,0,VALID,93.9664,VALID,0,VALID,22.0057,VALID,43,VALID,1.03672,
2009-10-10, 03:22:05,VALID,1000.28,VALID,0,VALID,93.974,VALID,0,VALID,22.0235,VALID,44,VALID,1.36367,
2009-10-10, 03:23:05,VALID,1000.27,VALID,0,VALID,93.8062,VALID,0,VALID,22.0057,VALID,44,VALID,1.2,
2009-10-10, 03:24:05,VALID,1000.26,VALID,0,VALID,93.7146,VALID,0,VALID,21.9472,VALID,50,VALID,1.02969,
2009-10-10, 03:25:05,VALID,1000.28,VALID,0,VALID,93.768,VALID,0,VALID,21.9082,VALID,54,VALID,0.917188,
2009-10-10, 03:26:05,VALID,1000.3,VALID,0,VALID,93.8596,VALID,0,VALID,21.9277,VALID,64,VALID,0.891016,
2009-10-10, 03:27:05,VALID,1000.29,VALID,0,VALID,93.8901,VALID,0,VALID,21.9472,VALID,66,VALID,0.700781,
2009-10-10, 03:28:05,VALID,1000.31,VALID,0,VALID,93.9511,VALID,0,VALID,21.926,VALID,66,VALID,0.571875,
2009-10-10, 03:29:05,VALID,1000.33,VALID,0,VALID,93.9359,VALID,0,VALID,21.9455,VALID,66,VALID,0.597266,
2009-10-10, 03:30:04,VALID,1000.37,VALID,0,VALID,93.913,VALID,0,VALID,21.926,VALID,66,VALID,0.499219,
2009-10-10, 03:31:04,VALID,1000.35,VALID,0,VALID,93.8825,VALID,0,VALID,21.9065,VALID,66,VALID,0.479297,
2009-10-10, 03:32:04,VALID,1000.34,VALID,0,VALID,93.8367,VALID,0,VALID,21.8887,VALID,66,VALID,0.695313,
2009-10-10, 03:33:04,VALID,1000.36,VALID,0,VALID,93.852,VALID,0,VALID,21.9082,VALID,66,VALID,0.61875,
2009-10-10, 03:34:04,VALID,1000.36,VALID,0,VALID,93.8443,VALID,0,VALID,21.848,VALID,66,VALID,0.789063,
2009-10-10, 03:35:04,VALID,1000.36,VALID,0,VALID,93.852,VALID,0,VALID,21.8496,VALID,66,VALID,0.682031,
2009-10-10, 03:36:04,VALID,1000.39,VALID,0,VALID,93.8138,VALID,0,VALID,21.809,VALID,66,VALID,0.526563,
2009-10-10, 03:37:04,VALID,1000.39,VALID,0,VALID,93.8748,VALID,0,VALID,21.8106,VALID,67,VALID,0.469922,
2009-10-10, 03:38:04,VALID,1000.36,VALID,0,VALID,93.9054,VALID,0,VALID,21.8106,VALID,67,VALID,0.570703,
2009-10-10, 03:39:04,VALID,1000.4,VALID,0,VALID,93.9435,VALID,0,VALID,21.8496,VALID,67,VALID,0.541016,
2009-10-10, 03:40:04,VALID,1000.43,VALID,0,VALID,93.9359,VALID,0,VALID,21.809,VALID,67,VALID,0.312891,
2009-10-10, 03:41:04,VALID,1000.41,VALID,0,VALID,93.974,VALID,0,VALID,21.809,VALID,67,VALID,0.216016,
2009-10-10, 03:42:04,VALID,1000.45,VALID,0,VALID,93.9435,VALID,0,VALID,21.809,VALID,67,VALID,0.346875,
2009-10-10, 03:43:04,VALID,1000.45,VALID,0,VALID,94.0351,VALID,0,VALID,21.8496,VALID,67,VALID,0.448828,
2009-10-10, 03:44:04,VALID,1000.44,VALID,0,VALID,94.0274,VALID,0,VALID,21.8692,VALID,75,VALID,0.607422,
2009-10-10, 03:45:04,VALID,1000.48,VALID,0,VALID,94.0198,VALID,0,VALID,21.8675,VALID,86,VALID,0.627734,
2009-10-10, 03:46:04,VALID,1000.44,VALID,0,VALID,94.0122,VALID,0,VALID,21.8675,VALID,112,VALID,0.626172,
2009-10-10, 03:47:04,VALID,1000.42,VALID,0,VALID,93.974,VALID,0,VALID,21.8675,VALID,112,VALID,0.644141,